CZ-6A DEB, 56634

Orbit data source: Space-Track

CZ-6A DEB, 56634 is space debris in SSO originally from a launch on Fri, 11 Nov 2022 UTC launched from the Taiyaun Space Center, China (TSC). Debris objects in space refer to the collection of defunct objects orbiting the Earth. Examples of debris include non-operational satellites, rocket bodies, and fragments generated from explosions, collisions, or faulty payload assembly.

Loading next visibility...
Identifier
56634, 2022-151AFJ
Orbit
SSO
Country
Flag of CNCN / PRC
Related business
Manufacturer
SAST
Mission
Spacecraft
Bus & Motor
Unknown
Mass
Unknown
Launch date (UTC)
2022-11-11 (4 years ago)
Launch vehicle
Unknown
Launch site
Taiyaun Space Center, China (TSC)
Object type
Payload
Rocket body
Debris
Shape & HBR
Unknown shape, 0.1 m
Radar Cross Section
Small (<0.1 m²)

Expand to show TLE details & history
Last TLE update: 2 days ago

TLE from 2 days ago
0 CZ-6A DEB
1 56634U 22151AFJ 26171.35005909  .00000112  00000-0  71287-4 0  9996
2 56634  98.7771 194.7034 0012869  27.5671 332.6186 14.21695492164077
Epoch: 2026-06-20T08:24Z
TLE epoch observation values (Epoch: 2026-06-20T08:24:05.105Z)
Latitude
-0.00004°
Longitude
160.11619°
Altitude
814.315 km
Speed
7.45 km/s
True Right ascension
12h 58m 48s
True Declination
0° 00' 00"
Sunlit
Object was in daylight at epoch
Visualization orbit readout
Latitude
Unknown
Longitude
Unknown
Altitude
Unknown
Speed
Unknown
Apparent Right ascension
Unknown
Apparent Declination
Unknown
Sunlit
N/A
Visualization observer readout
Local Sidereal Time
21:34:06
Azimuth
Unknown
Elevation
Unknown
Doppler factor
Unknown
Orbital elements
Apogee altitude
826.043 km
Perigee altitude
807.525 km
Semi-major axis
7,194.921 km
Eccentricity
0.00129
Inclination
98.7771°
RAAN
194.7034°
Arg. of periapsis
27.5671°
True anomaly
332.55068°
Mean anomaly
332.6186°
Eccentric anomaly
332.58465°
Mean motion
3.55635 °/min
Orbital period
101.23 mins
BSTAR
0.000071287
Loading maneuver chart data...
Computing Atmospheric mass density...
Loading historical data...
Loading historical data...
Loading historical data...
Loading historical data...
Loading historical data...
Loading historical data...
Loading historical data...

Documentation

Showing up to 5 results
|